User: anonymous   Login
Location: Tyler Bend Campground
(35.9875°N, 92.7606°W)
Time: 03:29:52
(UTC-05:00)
Language:

CZ-2C R/B - Orbit

View from above orbital plane
View from above orbital plane
View from above satellite
View from above satellite

Ground track
Ground track

The orbit data is extracted from the following two-line orbital elements,

1 36089U 09061B   16238.68681127  .00000093  00000-0  34542-4 0  9995
2 36089  98.0516 247.6855 0080948 235.2620 251.2485 14.49592114358893
Epoch (UTC): 25 August 2016 16:29:00
Eccentricity: 0.0080948
inclination: 98.0516°
perigee height: 669 km
apogee height: 784 km
right ascension of ascending node: 247.6855°
argument of perigee: 235.2620°
revolutions per day: 14.49592114
mean anomaly at epoch: 251.2485°
orbit number at epoch: 35889

The dashed part of the orbit path shows where the satellite is in the earth's shadow,  

DLR